Regional Weather Roundup
Issued by NWS

Home | Current Version | Previous Version | Text Only | Print | Product List | Glossary Off
Versions: 1 2 3 4 5 6 7 8 9 10 11 12 13 14 15 16 17 18 19 20 21 22 23 24 25 26 27 28 29 30 31 32 33 34 35 36 37 38 39 40 41 42 43 44 45 46 47 48 49 50

000
ASUS43 KMKX 070000
RWRWI

WISCONSIN REGIONAL WEATHER ROUNDUP
NATIONAL WEATHER SERVICE MILWAUKEE/SULLIVAN WI
700 PM CDT WED MAY 06 2015

NOTE: "FAIR" INDICATES FEW OR NO CLOUDS BELOW 12,000 FEET WITH NO
SIGNIFICANT WEATHER AND/OR OBSTRUCTIONS TO VISIBILITY.

WIZ001-002-006>008-014>016-023>028-070100-
NORTHWEST WISCONSIN

CITY           SKY/WX    TMP DP  RH WIND       PRES   REMARKS
SUPERIOR ARPT  CLOUDY    46  35  66 NE14      29.96F
ASHLAND        PTSUNNY   54  45  71 N8        29.98F
6HR MIN TEMP:  54; 6HR MAX TEMP:  64;

HAYWARD        PTSUNNY   72  56  57 SE10      29.94F
6HR MIN TEMP:  63; 6HR MAX TEMP:  75; 6HR PCP: TRACE;

SIREN          CLOUDY    74  56  54 SE12G25   29.91S
CUMBERLAND     CLOUDY    72  55  56 SE10      29.94R
RICE LAKE      CLOUDY    73  55  53 SE12      29.95S
CHETEK         CLOUDY    73  58  59 SE12G18   29.94S
LADYSMITH      PTSUNNY   72  58  62 E8        29.99F
EAU CLAIRE     CLOUDY    75  55  49 SE12      29.93S
6HR MIN TEMP:  64; 6HR MAX TEMP:  78;

MENOMONIE      CLOUDY    74  55  51 SE12      29.93S
NEW RICHMOND   LGT RAIN  66  59  79 SE12      29.93S
OSCEOLA        LGT RAIN  68  60  74 SE13G25   29.94R
$$

WIZ003>005-009-010-017-018-070100-
NORTH CENTRAL WISCONSIN

CITY           SKY/WX    TMP DP  RH WIND       PRES   REMARKS
MANITOWISH WTR MOSUNNY   68  58  71 S10       30.02F
ARBOR VITAE    PTSUNNY   71  59  66 SE7       30.03F
WOODRUFF       PTSUNNY   71  59  66 SE7       30.03F
RHINELANDER    PTSUNNY   68  57  68 S8G18     30.05F
6HR MIN TEMP:  59; 6HR MAX TEMP:  70;

EAGLE RIVER    MOSUNNY   69  52  54 SE7       30.04F
LAND O LAKES   SUNNY     69  53  55 SE6       30.05F
PHILLIPS       CLOUDY    68  58  71 SE7       30.01F
TOMAHAWK       PTSUNNY   66  58  73 SE3       30.04F
MEDFORD        PTSUNNY   70  58  65 SE9G16    30.01F
MERRILL        PTSUNNY  N/A N/A N/A SE12      30.05S
$$

WIZ029-030-035-036-043>047-070100-
CENTRAL WISCONSIN

CITY           SKY/WX    TMP DP  RH WIND       PRES   REMARKS
WAUSAU         PTSUNNY   70  57  63 SE13      30.02F
6HR MIN TEMP:  65; 6HR MAX TEMP:  73;

MOSINEE        SUNNY     68  57  68 SE12G17   30.04F
MARSHFIELD     PTSUNNY   73  57  57 SE14      30.01F
6HR MIN TEMP:  67; 6HR MAX TEMP:  77;

STEVENS POINT  PTSUNNY   67  56  67 E12       30.05F
WAUPACA        MOSUNNY   72  57  60 E12       30.06F
WAUTOMA        NOT AVBL
WISC RAPIDS    PTSUNNY   72  57  59 SE8       30.03F
6HR MIN TEMP:  67; 6HR MAX TEMP:  77; 6HR PCP: TRACE;

CAMP DOUGLAS   NOT AVBL
$$

WIZ011>013-019>022-031-037>040-048>050-070100-
NORTHEAST WISCONSIN

CITY           SKY/WX    TMP DP  RH WIND       PRES   REMARKS
ANTIGO         PTSUNNY   65  58  75 S10       30.07F
SHAWANO        PTSUNNY   67  56  68 SE7       30.08F
OCONTO         PTCLDY    61  53  75 E5        30.09F
STURGEON BAY   PTCLDY    55  48  76 E6        30.13F
6HR MIN TEMP:  55; 6HR MAX TEMP:  61;

GREEN BAY      PTCLDY    68  57  68 SE7       30.08F
6HR MIN TEMP:  67; 6HR MAX TEMP:  71;

MANITOWOC      NOT AVBL
APPLETON       PTCLDY    66  55  68 SE9       30.08F
CLINTONVILLE   MOSUNNY   68  55  64 SE8       30.07S
OSHKOSH        PTCLDY    68  59  73 E7        30.06F
6HR MIN TEMP:  60; 6HR MAX TEMP:  68; 6HR PCP:  0.27;

$$

WIZ032>034-041-042-053>061-070100-
SOUTHWEST WISCONSIN

CITY           SKY/WX    TMP DP  RH WIND       PRES   REMARKS
LA CROSSE      CLOUDY    78  58  49 SE15      29.92F
6HR MIN TEMP:  73; 6HR MAX TEMP:  82;

SPARTA         MOSUNNY   75  57  52 SE13G20   29.98S
VIROQUA        PTSUNNY   74  58  57 SE16G22   29.98S
BOSCOBEL       CLOUDY    79  56  45 VRB5      29.96F HX  80
6HR MIN TEMP:  72; 6HR MAX TEMP:  81;

PRAIRIE DU CHI CLOUDY    68  59  72 SW6       29.98R
PLATTEVILLE    PTSUNNY   76  55  48 SE10      29.99F
$$

WIZ056-057-062-063-064-067-068-070100-
SOUTH CENTRAL WISCONSIN

CITY           SKY/WX    TMP DP  RH WIND       PRES   REMARKS
REEDSBURG      MOSUNNY   73  64  71 E8        30.00F
BARABOO/DELLS  MOSUNNY   73  60  64 SE8       30.02
LONE ROCK      NOT AVBL
MINERAL POINT  MOSUNNY   77  52  41 SE10      30.00F
MADISON        PTSUNNY   74  62  66 SE14      30.02F
6HR MIN TEMP:  64; 6HR MAX TEMP:  77;

MIDDLETON      MOSUNNY   76  61  60 E8        30.02F
WATERTOWN      MOCLDY    69  58  69 E7        30.05F
MONROE         MOSUNNY   75  55  50 SE10      30.01F
JANESVILLE     PTCLDY    73  63  68 E12       30.03F
$$

WIZ051-052-058>065-066-070>072-070100-
SOUTHEAST WISCONSIN

CITY           SKY/WX    TMP DP  RH WIND       PRES   REMARKS
MILWAUKEE      MOCLDY    50  45  83 NE6       30.09F
6HR MIN TEMP:  50; 6HR MAX TEMP:  60;

WAUKESHA       MOCLDY    63  54  72 E8        30.09F
MILWAUKEE/TIMM CLEAR     59  50  72 E7        30.09F HAZE
RACINE         MOCLDY    51  47  86 NE6       30.10F
6HR MIN TEMP:  51; 6HR MAX TEMP:  61;

BURLINGTON     CLEAR     63  56  78 E7        30.08F HAZE
KENOSHA        PTCLDY    56  53  90 E8        30.08F
6HR MIN TEMP:  56; 6HR MAX TEMP:  61;

FOND DU LAC    MOCLDY    67  57  70 SE12      30.06F
6HR MIN TEMP:  60; 6HR MAX TEMP:  71; 6HR PCP: TRACE;

SHEBOYGAN      PTCLDY    55  50  83 E5        30.10F
6HR MIN TEMP:  54; 6HR MAX TEMP:  63; 6HR PCP: TRACE;

WEST BEND      MOCLDY    61  54  77 E8        30.09F
JUNEAU         MOCLDY    67  58  72 E12       30.07F
$$

LSZ147-162-070100-
LAKE SUPERIOR

STATION/POSITION TIME  TEMP    WIND        PRES    WAVE
                       AIR SEA DIR/SP/G            HT/PER
                 (UTC) (F)     (DEG/KT/KT) (MB)    (FT/S)
W MID LAKE BUOY  2250   39 36   50/ 12/ 12 1017.2F   1
DEVILS ISLAND    2300   42      50/  6/  7 1016.9F
PORT WING        2300   42      30/ 16/ 18 1015.2F
SAXON HARBOR     2300   48        CALM     1015.2F
$$

LMZ867-665-643>646-070100-
LAKE MICHIGAN

STATION/POSITION TIME  TEMP    WIND        PRES    WAVE
                       AIR SEA DIR/SP/G            HT/PER
                 (UTC) (F)     (DEG/KT/KT) (MB)    (FT/S)
CHAMBERS ISLAND  2300   56      80/  4/  6 1019.6F
NORTHPORT PIER   2300   48     140/  4/  5 1020.3F
SISTER BAY       2332   57     140/  9/ 14   N/A
KEWAUNEE LAKESHO 2300   45      90/  3/  5 1019.5F
SHEBOYGAN LAKESH 2300   44      80/  6/  7 1020.6F
PORT WASHINGTON  2300   49      80/  3/  4 1020.3
ATWATER BUOY     2300   43      50/  6/  8 1020.5F
MILWAUKEE LAKESH 2300   44      50/  9/  9   N/A
KENOSHA   LAKESH 2300   47      20/  5/  5 1019.0F
$$

TC  - TEMPERATURE IN CELSIUS
VSB - VISIBILITY IN STATUTE MILES
WCI - WIND CHILL INDEX
HX  - HEAT INDEX



USA.gov is the U.S. government's official web portal to all federal, state and local government web resources and services.